Wind_Speed
28 24 12 7 5 5 6 6 6 7 7 7 8 8 8 9 9 10 10 10 11 11 11 12 15 18 20 22 24 24 24 23 23 21 20 14 13 14 17 24 32 30 26 26 21 18 18
27 24 12 7 4 4 5 4 4 5 5 5 4 3 2 2 4 5 5 5 7 8 8 7 8 10 11 14 16 19 23 26 28 24 21 17 16 15 25 23 21 27 25 23 26 14 17
28 23 10 6 4 4 3 3 3 3 1 3 3 3 3 4 5 5 5 5 4 4 5 7 8 10 10 12 12 13 14 20 26 29 24 22 20 21 31 18 20 33 30 28 36 35 25
30 21 8 4 4 4 2 3 3 2 5 2 4 6 10 11 10 10 10 11 12 11 8 7 4 5 9 11 12 13 15 16 20 24 29 27 26 31 38 24 12 26 28 29 36 37 28
29 17 7 4 5 4 2 3 6 6 3 5 11 11 8 8 9 8 7 9 11 11 9 9 9 8 6 5 8 12 16 18 18 18 25 33 34 34 40 34 22 20 28 28 37 40 37
26 13 7 6 6 4 3 7 8 6 2 10 10 10 8 7 8 9 8 8 9 9 10 10 10 10 10 11 10 11 14 17 19 15 22 37 38 35 38 35 21 28 23 24 32 40 39
20 11 8 8 8 5 7 10 9 5 7 9 7 7 7 6 6 5 6 6 7 8 7 7 7 9 9 12 15 21 16 11 17 17 19 30 41 39 35 35 27 29 22 19 31 33 37
14 10 9 10 10 7 11 11 8 7 10 6 5 5 4 4 4 4 5 5 6 8 9 7 9 6 6 9 15 21 26 11 8 13 16 24 39 43 40 40 37 25 28 22 19 31 32
12 12 12 13 10 11 12 10 10 14 9 4 3 2 3 4 5 6 8 8 5 5 8 9 11 11 10 11 13 13 18 26 13 7 12 18 30 46 44 39 39 30 30 24 14 26 29
12 14 13 14 11 12 10 12 17 13 8 3 1 1 3 4 5 7 8 9 11 8 7 9 12 14 14 15 13 10 11 15 20 16 5 13 21 39 49 44 42 35 35 31 24 24 31
13 15 15 14 13 11 14 19 15 14 6 3 1 3 5 7 9 10 11 11 13 14 12 12 13 12 14 13 15 13 13 16 15 15 15 2 12 26 44 49 45 41 36 36 30 29 30
14 16 16 15 13 14 16 14 12 10 7 4 0 3 8 10 12 13 13 12 12 14 18 14 15 13 13 12 10 11 11 12 13 12 11 11 5 14 28 43 50 47 43 35 37 36 35
15 18 17 15 15 16 13 13 10 7 5 3 3 6 10 12 13 15 15 15 15 12 14 17 17 15 14 13 12 11 11 12 11 11 12 11 11 9 14 27 43 49 51 45 43 38 37
17 19 19 16 15 15 12 11 8 7 7 5 5 9 12 14 16 17 18 16 16 15 11 12 18 20 17 13 16 16 17 15 15 14 14 16 15 12 12 13 26 38 48 53 52 54 48
21 21 19 16 17 14 12 10 9 7 6 7 7 11 13 16 19 20 20 19 17 16 15 13 16 20 21 23 22 22 22 20 19 18 19 21 20 19 17 16 18 23 35 45 53 57 55
21 20 18 15 15 13 12 11 9 7 7 10 13 14 17 19 20 23 23 23 20 19 20 20 19 21 24 26 27 27 29 26 27 24 22 21 27 26 25 26 22 20 20 31 44 54 58
20 18 18 15 15 13 12 11 7 6 9 14 19 21 20 21 24 27 25 25 27 26 27 29 30 29 30 31 32 32 31 34 33 33 31 29 30 29 32 35 30 23 23 25 30 41 52
17 18 16 16 16 15 12 9 10 11 14 16 21 28 27 26 27 28 30 30 31 32 33 34 38 40 38 39 38 39 39 38 39 39 33 38 32 33 36 37 36 31 28 23 22 30 39
17 17 17 17 17 13 10 11 13 14 17 22 26 30 31 30 31 33 34 33 34 36 40 43 44 46 49 49 45 46 42 41 37 33 29 34 32 33 34 36 38 34 33 26 29 23 32
17 17 15 15 13 12 14 15 18 22 25 30 33 35 33 29 32 37 39 38 42 44 49 50 51 49 52 51 46 39 34 35 28 24 25 25 29 34 34 34 36 35 36 34 30 30 26
15 16 16 15 15 15 18 20 22 28 31 36 39 38 34 35 38 44 42 44 46 51 53 54 55 55 50 43 39 34 35 34 34 30 29 28 28 30 35 36 36 37 37 39 34 31 27
17 16 16 16 17 20 22 25 29 31 38 42 40 39 40 41 44 48 47 50 53 58 61 61 51 45 42 38 38 40 39 40 47 42 40 37 35 34 36 37 35 33 35 42 39 41 29
16 16 17 18 22 24 28 32 36 38 43 41 42 45 48 47 50 52 54 57 60 58 61 55 47 41 44 41 43 44 47 50 51 53 50 44 39 37 38 40 35 31 36 38 44 35 32
17 18 21 24 27 31 35 39 44 46 43 43 47 50 52 55 55 58 62 62 60 57 51 55 50 50 53 53 52 56 55 57 58 60 60 54 48 46 42 45 38 31 32 39 39 42 38
19 23 26 29 33 36 41 45 45 47 49 52 55 57 59 61 63 64 62 59 57 53 54 54 58 59 58 65 63 61 62 64 65 68 66 62 60 53 48 46 44 37 35 37 42 41 44
25 29 33 36 39 43 45 46 48 51 55 57 60 59 60 56 55 58 55 52 53 57 60 58 62 66 67 72 76 74 70 69 67 67 71 67 62 56 49 48 47 47 40 35 43 45 48
32 36 40 42 45 46 48 52 56 58 59 58 58 56 55 54 52 55 57 58 58 59 64 69 70 72 75 78 73 67 61 58 57 62 64 64 58 51 50 48 48 49 43 33 45 50 53
39 42 44 46 48 52 55 58 60 61 59 56 55 55 57 59 56 55 56 59 62 64 70 74 77 78 74 65 60 57 54 52 49 53 55 57 52 49 49 49 47 51 44 36 42 55 54
43 45 48 52 56 60 63 62 60 60 58 56 56 57 59 59 56 58 63 65 69 70 75 78 78 70 62 58 51 46 47 49 48 47 50 53 46 47 47 48 48 49 41 37 40 53 58
Wind_Direction
343 344 335 316 287 272 267 269 270 270 272 275 281 283 287 290 291 290 286 285 284 283 277 270 264 262 261 258 256 253 249 245 240 230 232 233 237 224 221 200 200 205 218 221 211 223 237
337 338 330 316 284 260 273 279 279 275 275 288 297 315 336 341 340 342 339 328 316 305 303 292 276 267 261 256 255 252 248 243 238 230 224 217 227 215 181 167 192 211 208 214 202 187 228
333 328 319 308 276 262 282 298 306 279 297 109 73 21 359 357 15 34 43 43 12 321 301 290 285 277 270 267 263 261 253 244 240 230 215 211 214 197 175 177 210 215 217 213 209 210 213
326 319 303 286 257 257 280 275 266 159 130 83 18 80 93 83 80 71 65 55 46 43 42 41 17 293 268 261 259 258 258 252 244 231 215 206 211 192 179 192 213 207 210 215 216 213 214
320 307 272 257 224 232 242 220 164 141 132 80 97 95 78 71 62 60 60 49 47 46 52 44 40 34 5 309 281 265 258 249 244 230 213 210 209 200 201 202 232 237 219 221 216 217 231
315 289 242 224 206 206 206 164 156 150 119 112 96 93 75 80 74 72 62 50 39 40 38 44 39 30 25 10 359 336 290 263 249 232 208 212 209 208 209 209 210 231 230 221 219 218 224
309 264 228 218 199 187 175 163 160 176 142 117 110 98 81 90 86 68 53 37 12 15 10 13 27 48 40 35 22 20 358 275 246 230 214 212 209 211 214 220 210 220 226 218 222 221 226
293 239 217 211 197 180 173 168 172 179 156 139 107 97 87 82 60 31 12 19 360 350 344 344 329 339 337 355 2 22 22 5 262 231 215 217 211 212 217 214 218 214 219 215 233 221 224
270 225 212 204 190 177 183 178 180 165 160 165 89 89 89 46 4 356 352 352 355 350 327 336 323 327 337 334 322 358 21 28 16 249 219 218 216 213 219 221 224 218 215 217 218 211 219
245 218 207 193 182 184 191 174 161 165 168 130 108 67 8 13 2 356 355 345 326 320 325 319 313 311 321 331 339 331 345 1 19 33 234 220 220 218 221 222 226 216 214 205 206 202 214
231 212 196 183 184 183 166 160 161 173 175 161 230 349 352 345 343 344 348 347 333 320 302 315 327 317 304 316 325 335 340 323 338 10 33 287 233 224 222 224 226 222 216 215 211 211 227
221 202 185 182 183 174 166 168 172 172 170 193 236 318 313 322 328 329 328 326 323 322 319 319 326 340 345 328 302 319 336 324 326 333 1 5 355 237 229 229 228 226 214 202 215 220 216
212 190 179 185 183 173 169 170 174 177 181 198 281 314 330 332 326 323 323 322 320 320 320 314 314 329 337 330 332 320 306 310 309 311 319 323 334 349 244 233 232 232 230 210 216 219 217
190 180 181 187 185 177 174 169 171 184 198 242 296 336 332 329 332 329 325 324 320 318 305 301 309 310 310 314 314 316 313 311 299 293 286 297 309 307 314 271 242 238 233 231 223 228 232
181 182 184 186 181 170 171 176 183 201 241 279 315 331 330 330 328 326 323 322 322 318 308 299 300 306 307 307 306 300 301 304 302 296 289 289 289 284 286 287 280 253 242 236 230 224 228
182 185 187 180 177 175 181 188 204 239 289 303 313 321 321 324 328 330 328 322 320 318 314 311 306 299 297 299 301 301 300 299 296 294 290 285 282 285 278 278 271 274 271 249 239 230 224
185 191 184 176 180 190 200 214 248 281 303 311 308 312 319 321 325 318 318 319 315 312 311 308 306 304 302 298 298 298 295 294 295 292 291 286 277 272 273 274 273 258 278 284 254 238 230
194 188 186 187 198 210 225 247 267 292 302 309 314 317 320 317 313 313 316 312 309 308 308 306 306 303 303 301 301 297 292 289 290 289 290 283 281 269 263 268 269 265 253 270 282 256 234
176 184 189 201 208 222 239 262 276 280 296 304 306 308 307 305 306 309 308 304 304 305 306 307 303 302 306 302 299 295 293 289 287 287 279 274 272 265 261 261 264 268 259 254 270 282 239
188 194 203 210 220 240 258 272 287 298 306 310 307 304 300 302 303 305 303 303 302 304 307 304 303 300 300 298 295 295 294 291 290 286 281 282 272 265 260 257 257 262 262 246 254 267 271
199 209 213 226 242 261 276 284 295 300 305 309 306 303 299 297 299 302 304 302 301 303 300 300 298 298 296 295 295 291 288 287 286 287 285 284 291 275 266 258 257 266 253 249 251 256 266
210 216 230 246 263 279 287 293 301 301 304 307 305 302 301 299 299 300 299 298 300 301 301 301 299 295 294 292 286 287 287 290 287 286 284 281 282 280 269 262 261 259 257 248 253 251 248
227 242 255 270 282 284 292 294 301 302 304 303 304 303 301 302 301 301 300 299 300 300 301 299 301 299 293 287 288 286 281 282 283 282 280 277 275 273 269 264 262 251 258 255 246 252 247
251 265 276 281 285 287 295 298 302 303 304 304 304 301 301 301 301 300 299 301 300 301 298 297 299 295 291 290 288 284 279 279 277 275 279 273 269 272 266 263 266 254 240 251 248 246 249
268 280 286 290 291 294 298 299 300 302 304 305 305 303 301 300 299 297 299 300 300 297 296 297 296 291 289 290 290 285 278 276 274 273 272 269 268 266 265 261 262 260 247 248 246 246 243
283 290 292 294 295 297 300 300 301 302 302 302 303 301 300 303 305 301 301 300 298 297 299 299 296 298 296 295 294 289 282 277 270 264 263 262 262 263 256 254 254 254 253 247 243 238 236
287 290 295 298 299 299 300 302 303 302 302 301 304 304 304 304 305 302 302 301 301 302 300 301 299 300 299 296 292 285 276 268 262 257 255 257 252 248 250 250 253 254 253 244 237 236 238
291 295 298 299 300 301 302 302 302 302 302 302 308 308 305 303 304 301 301 301 302 303 303 305 305 303 301 296 287 279 275 269 258 251 249 248 247 243 238 242 247 251 250 252 240 234 228
294 296 298 299 300 301 302 303 302 303 304 304 307 307 305 305 306 305 304 304 304 306 310 308 306 302 299 293 286 279 273 266 257 247 241 239 237 239 238 240 246 249 251 255 243 224 223
Height
10925 10922 10919 10919 10918 10918 10918 10918 10918 10918 10918 10917 10917 10917 10917 10917 10917 10916 10916 10915 10914 10914 10914 10913 10912 10912 10913 10913 10913 10914 10916 10917 10918 10920 10921 10926 10927 10926 10925 10927 10935 10939 10941 10945 10948 10951 10952
10923 10920 10918 10916 10916 10917 10917 10917 10917 10916 10916 10916 10916 10916 10915 10915 10915 10914 10914 10913 10912 10911 10910 10909 10909 10908 10908 10907 10907 10908 10909 10910 10911 10915 10919 10924 10921 10921 10922 10926 10929 10933 10935 10939 10945 10947 10948
10920 10918 10916 10915 10914 10915 10916 10916 10915 10914 10915 10915 10915 10915 10915 10914 10913 10913 10912 10911 10910 10908 10907 10906 10905 10904 10904 10903 10903 10903 10904 10904 10904 10909 10915 10919 10917 10918 10921 10924 10925 10926 10930 10934 10938 10940 10943
10917 10915 10913 10912 10913 10913 10914 10914 10914 10914 10914 10915 10915 10915 10914 10914 10914 10913 10912 10911 10910 10908 10907 10905 10903 10902 10901 10901 10900 10899 10899 10899 10899 10903 10910 10913 10912 10916 10918 10921 10921 10922 10925 10929 10934 10937 10939
10913 10911 10910 10910 10910 10911 10912 10913 10913 10914 10914 10915 10916 10916 10915 10915 10914 10914 10913 10912 10911 10909 10907 10905 10903 10902 10900 10899 10898 10896 10895 10895 10894 10897 10904 10906 10906 10911 10913 10917 10915 10917 10919 10923 10928 10932 10935
10908 10907 10907 10907 10908 10910 10911 10912 10913 10913 10914 10915 10916 10916 10916 10915 10915 10914 10913 10913 10912 10910 10909 10906 10904 10902 10900 10899 10897 10895 10892 10890 10889 10892 10896 10897 10901 10906 10908 10911 10911 10911 10915 10918 10921 10925 10929
10904 10904 10905 10905 10906 10908 10909 10911 10912 10913 10914 10915 10916 10916 10916 10915 10915 10915 10914 10913 10912 10911 10909 10907 10906 10902 10901 10899 10896 10893 10888 10884 10885 10888 10890 10890 10897 10900 10903 10903 10905 10910 10912 10914 10917 10921 10924
10900 10901 10902 10903 10904 10906 10907 10909 10911 10911 10913 10915 10916 10916 10915 10915 10915 10915 10914 10913 10912 10910 10909 10907 10905 10903 10900 10898 10896 10891 10887 10883 10881 10884 10887 10886 10889 10892 10896 10899 10900 10905 10909 10910 10913 10917 10920
10897 10898 10899 10900 10902 10904 10906 10908 10909 10911 10913 10914 10915 10915 10915 10915 10914 10913 10913 10912 10911 10910 10908 10906 10904 10902 10899 10896 10895 10891 10889 10885 10881 10881 10884 10883 10884 10886 10889 10893 10896 10901 10905 10906 10911 10914 10918
10893 10895 10896 10899 10901 10903 10904 10906 10908 10910 10912 10913 10913 10914 10914 10914 10914 10913 10912 10911 10908 10907 10907 10905 10903 10900 10897 10895 10893 10890 10888 10886 10883 10880 10880 10881 10881 10882 10883 10888 10890 10896 10901 10904 10909 10913 10916
10890 10892 10895 10897 10900 10902 10903 10905 10908 10910 10912 10912 10912 10913 10912 10912 10912 10911 10911 10909 10906 10904 10903 10903 10901 10897 10895 10893 10891 10889 10887 10884 10883 10882 10879 10878 10878 10878 10880 10883 10886 10891 10897 10901 10907 10909 10913
10888 10891 10893 10897 10899 10901 10903 10905 10907 10909 10911 10911 10911 10911 10911 10910 10909 10908 10908 10906 10905 10902 10898 10898 10896 10895 10892 10890 10889 10887 10885 10883 10881 10880 10879 10877 10875 10876 10878 10879 10880 10886 10891 10896 10901 10900 10905
10886 10890 10893 10896 10898 10901 10903 10905 10907 10908 10909 10910 10910 10910 10908 10907 10906 10904 10903 10902 10901 10900 10898 10894 10892 10892 10891 10889 10886 10885 10884 10881 10879 10877 10876 10875 10873 10871 10871 10872 10874 10878 10881 10890 10891 10892 10897
10885 10888 10891 10894 10897 10900 10903 10905 10906 10907 10908 10907 10907 10907 10906 10904 10902 10900 10898 10898 10896 10896 10896 10894 10891 10889 10888 10887 10885 10882 10879 10878 10876 10874 10873 10871 10870 10868 10867 10865 10866 10868 10873 10877 10881 10885 10889
10883 10887 10890 10894 10897 10899 10902 10903 10905 10906 10906 10905 10905 10904 10902 10901 10899 10897 10894 10892 10892 10890 10891 10891 10889 10886 10883 10881 10880 10878 10876 10874 10871 10869 10867 10865 10866 10865 10863 10861 10858 10859 10858 10865 10870 10877 10883
10883 10886 10890 10893 10896 10898 10900 10902 10903 10904 10904 10902 10901 10901 10899 10897 10895 10892 10889 10886 10885 10884 10883 10883 10883 10882 10879 10876 10873 10871 10867 10867 10864 10863 10861 10860 10855 10857 10856 10854 10853 10851 10851 10853 10855 10864 10874
10883 10886 10889 10892 10895 10897 10899 10900 10901 10901 10901 10899 10896 10895 10895 10893 10890 10887 10884 10882 10878 10877 10876 10874 10872 10871 10870 10869 10867 10864 10861 10857 10855 10854 10852 10851 10849 10849 10847 10845 10845 10846 10844 10843 10845 10850 10858
10882 10885 10889 10891 10893 10895 10897 10898 10898 10897 10896 10896 10892 10888 10887 10885 10883 10879 10878 10875 10872 10869 10867 10865 10862 10859 10859 10856 10855 10853 10852 10849 10846 10844 10844 10836 10838 10836 10836 10835 10834 10836 10836 10836 10835 10836 10846
10880 10884 10887 10889 10891 10893 10894 10894 10894 10894 10893 10890 10888 10884 10882 10879 10875 10873 10870 10867 10864 10862 10857 10854 10852 10847 10841 10840 10843 10838 10837 10834 10833 10832 10831 10828 10827 10825 10824 10824 10824 10826 10827 10828 10827 10829 10833
10879 10882 10885 10887 10888 10889 10889 10890 10889 10886 10885 10883 10881 10878 10875 10873 10869 10866 10861 10858 10853 10850 10843 10841 10838 10837 10832 10826 10825 10825 10824 10820 10821 10822 10821 10819 10816 10813 10814 10814 10814 10817 10815 10817 10819 10821 10823
10877 10880 10882 10883 10884 10885 10884 10884 10884 10880 10877 10875 10871 10867 10866 10864 10861 10854 10852 10847 10843 10838 10835 10830 10825 10819 10817 10816 10813 10813 10810 10809 10807 10811 10810 10809 10807 10803 10801 10804 10805 10806 10806 10807 10809 10812 10817
10874 10877 10878 10879 10880 10880 10879 10877 10876 10874 10869 10865 10862 10857 10854 10852 10850 10845 10842 10835 10831 10822 10816 10810 10811 10805 10803 10802 10803 10799 10799 10797 10791 10796 10796 10797 10796 10793 10790 10792 10795 10797 10797 10798 10800 10802 10809
10871 10873 10874 10874 10874 10873 10871 10869 10867 10865 10861 10855 10851 10845 10840 10842 10835 10828 10824 10819 10814 10811 10799 10793 10793 10794 10788 10790 10788 10788 10784 10781 10779 10774 10778 10781 10782 10782 10779 10778 10783 10789 10786 10786 10788 10792 10798
10868 10868 10868 10868 10867 10865 10863 10860 10856 10851 10849 10845 10841 10835 10829 10824 10818 10812 10805 10803 10796 10791 10788 10776 10781 10775 10768 10769 10772 10768 10767 10764 10762 10755 10756 10760 10764 10766 10767 10764 10769 10774 10776 10774 10778 10780 10783
10863 10863 10862 10860 10858 10856 10853 10849 10844 10840 10836 10831 10826 10820 10814 10808 10802 10793 10789 10783 10778 10773 10769 10768 10758 10754 10755 10744 10746 10749 10746 10742 10741 10737 10736 10737 10740 10748 10751 10751 10754 10759 10764 10767 10767 10769 10774
10856 10856 10853 10851 10848 10845 10842 10838 10833 10829 10823 10817 10811 10804 10797 10793 10786 10775 10771 10768 10761 10755 10748 10748 10740 10734 10728 10721 10714 10714 10715 10713 10713 10712 10707 10713 10720 10727 10733 10734 10736 10739 10749 10757 10757 10756 10756
10848 10846 10844 10841 10838 10833 10829 10825 10819 10814 10808 10802 10796 10789 10781 10775 10774 10764 10754 10748 10744 10739 10728 10723 10717 10709 10705 10693 10685 10678 10678 10679 10682 10683 10685 10688 10697 10709 10712 10715 10719 10722 10732 10740 10740 10742 10745
10838 10836 10833 10830 10826 10821 10817 10811 10805 10798 10793 10787 10779 10772 10764 10756 10755 10748 10740 10733 10727 10722 10709 10699 10691 10682 10673 10665 10658 10652 10651 10651 10657 10658 10665 10667 10679 10688 10694 10698 10703 10704 10717 10723 10723 10724 10732
10828 10825 10821 10817 10813 10807 10802 10795 10788 10781 10775 10770 10765 10757 10747 10740 10737 10729 10720 10715 10706 10698 10687 10676 10664 10655 10648 10638 10634 10632 10632 10631 10635 10640 10643 10651 10664 10670 10678 10683 10687 10690 10702 10708 10709 10713 10717